Location: Newark
(42.7133°N, 87.7910°W)
Time: 20:11:17
(UTC+00:00)

SR - Pass Details

Date: 25 October 2019
Orbit: 574 x 882 km, 66.7° (Epoch: 17 November)

Event Time Altitude Azimuth Distance (km) Brightness Sun altitude
Rises 11:16:32 0° 330° (NNW) 3,460 ? -11.6°
Reaches altitude 10° 11:19:02 10° 333° (NNW) 2,536 ? -11.1°
Maximum altitude 11:24:58 72° 57° (ENE) 929 ? -10.0°
Drops below altitude 10° 11:30:49 10° 142° (SE) 2,503 ? -9.0°
Sets 11:33:16 0° 144° (SE) 3,413 ? -8.5°
